TimeEST,TemperatureF,Dew PointF,Humidity,Sea Level PressureIn,VisibilityMPH,Wind Direction,Wind SpeedMPH,Gust SpeedMPH,PrecipitationIn,Events,Conditions,WindDirDegrees,DateUTC
12:53 AM,28.9,27.0,92,30.42,10.0,Calm,Calm,-,N/A,,Clear,0,2012-12-13 05:53:00
1:53 AM,28.0,26.1,92,30.41,9.0,WNW,3.5,-,N/A,,Clear,300,2012-12-13 06:53:00
2:53 AM,28.0,26.1,92,30.42,9.0,NW,3.5,-,N/A,,Clear,310,2012-12-13 07:53:00
3:53 AM,28.0,26.1,92,30.42,10.0,Calm,Calm,-,N/A,,Clear,0,2012-12-13 08:53:00
4:53 AM,27.0,26.1,96,30.42,10.0,Calm,Calm,-,N/A,,Clear,0,2012-12-13 09:53:00
5:53 AM,26.1,24.1,92,30.42,9.0,Calm,Calm,-,N/A,,Clear,0,2012-12-13 10:53:00
6:53 AM,25.0,23.0,92,30.47,10.0,Calm,Calm,-,N/A,,Clear,0,2012-12-13 11:53:00
7:53 AM,24.1,23.0,96,30.46,8.0,Calm,Calm,-,N/A,,Clear,0,2012-12-13 12:53:00
8:53 AM,32.0,27.0,82,30.45,10.0,Calm,Calm,-,N/A,,Clear,0,2012-12-13 13:53:00
9:53 AM,39.0,28.9,67,30.46,10.0,Calm,Calm,-,N/A,,Clear,0,2012-12-13 14:53:00
10:53 AM,45.0,23.0,42,30.45,10.0,Variable,5.8,-,N/A,,Clear,0,2012-12-13 15:53:00
11:53 AM,46.0,23.0,40,30.43,10.0,East,5.8,-,N/A,,Clear,80,2012-12-13 16:53:00
12:53 PM,46.0,21.9,39,30.40,10.0,Variable,4.6,-,N/A,,Clear,0,2012-12-13 17:53:00
1:53 PM,46.9,21.9,37,30.39,10.0,Variable,3.5,-,N/A,,Clear,0,2012-12-13 18:53:00
2:53 PM,46.0,23.0,40,30.37,10.0,NNE,3.5,-,N/A,,Clear,20,2012-12-13 19:53:00
3:53 PM,45.0,21.9,40,30.37,10.0,Calm,Calm,-,N/A,,Clear,0,2012-12-13 20:53:00
4:53 PM,39.0,24.1,55,30.37,10.0,Calm,Calm,-,N/A,,Clear,0,2012-12-13 21:53:00
6:53 PM,30.9,25.0,79,30.38,10.0,Calm,Calm,-,N/A,,Clear,0,2012-12-13 23:53:00
7:53 PM,28.9,26.1,89,30.38,10.0,NW,4.6,-,N/A,,Clear,310,2012-12-14 00:53:00
8:53 PM,27.0,24.1,89,30.36,10.0,NW,4.6,-,N/A,,Clear,310,2012-12-14 01:53:00
9:53 PM,27.0,24.1,89,30.35,10.0,Calm,Calm,-,N/A,,Clear,0,2012-12-14 02:53:00
10:53 PM,25.0,23.0,92,30.34,10.0,NW,3.5,-,N/A,,Clear,310,2012-12-14 03:53:00
11:53 PM,24.1,21.9,91,30.33,10.0,Calm,Calm,-,N/A,,Clear,0,2012-12-14 04:53:00